Flag for U.S.A. Weather past 2 weeks in Midland, Texas, U.S.A.

Now
56 °F

Clear.


Feels Like: 55 °F
Forecast: 42 / 54 °F
Wind: 5 mph from Southeast

Location: Midland - Midland Airpark

Current Time: Dec 18, 2014 at 9:21:02 PM

Latest Report: Dec 18, 2014 at 8:55 PM


Visibility: 10 mi

Pressure: 30.08 "Hg

Humidity: 45%

Dew point: 35 °F

Location of MidlandLocation

Historic Weather in Midland — Graph

°F

Midland temperature yesterday

Maximum temperature yesterday: 67 °F (at 4:55 PM)
Minimum temperature yesterday: 49 °F (at 11:55 PM)
Average temperature yesterday: 55 °F

Past Weeks' High & Low Weather Summary

 TemperatureHumidityPressure
High73 °F (Dec 13, 2:55 PM)100% (Dec 4, 2:55 AM)30.47 "Hg (Dec 4, 2:55 AM)
Low37 °F (Dec 16, 7:35 AM)14% (Dec 14, 11:55 AM)29.82 "Hg (Dec 14, 4:15 PM)
Average55 °F68%30.16 "Hg
* Reported Dec 3 8:15 PM — Dec 18 8:15 PM, Midland, Weather by CustomWeather, © 2014

Note: Actual official high and low records may vary slightly from our data, if they occured in-between our weather recording intervals... More about our weather records

Advertising

Midland weather history for previous 24 hours

 ConditionsComfort  
Time TempWeatherWind HumidityBarometerVisibility
8:15 PM
Dec 18
57 °FClear.5 mph44%30.08 "Hg10 mi
7:55 PM56 °FClear.5 mph45%30.08 "Hg10 mi
7:35 PM57 °FClear.5 mph44%30.07 "Hg10 mi
7:15 PM58 °FClear.3 mph43%30.07 "Hg10 mi
6:55 PM58 °FClear.5 mph42%30.06 "Hg10 mi
6:35 PM57 °FClear.5 mph44%30.05 "Hg10 mi
6:15 PM59 °FClear.6 mph41%30.04 "Hg10 mi
5:55 PM60 °FClear.3 mph38%30.04 "Hg10 mi
5:35 PM61 °FSunny.3 mph38%30.03 "Hg10 mi
5:15 PM62 °FSunny.5 mph37%30.03 "Hg10 mi
4:55 PM62 °FSunny.3 mph37%30.04 "Hg10 mi
4:35 PM63 °FSunny.No wind34%30.04 "Hg10 mi
4:15 PM63 °FSunny.No wind34%30.04 "Hg10 mi
3:55 PM63 °FSunny.3 mph34%30.04 "Hg10 mi
3:15 PM64 °FSunny.6 mph33%30.05 "Hg10 mi
2:55 PM64 °FSunny.6 mph32%30.06 "Hg10 mi
2:15 PM63 °FSunny.5 mph33%30.06 "Hg10 mi
1:55 PM63 °FSunny.6 mph34%30.07 "Hg10 mi
1:35 PM63 °FSunny.5 mph35%30.07 "Hg10 mi
1:15 PM62 °FSunny.6 mph35%30.09 "Hg10 mi
12:55 PM62 °FSunny.5 mph36%30.10 "Hg10 mi
12:15 PM61 °FSunny.3 mph37%30.12 "Hg10 mi
11:55 AM60 °FSunny.6 mph38%30.13 "Hg10 mi
11:35 AM60 °FSunny.5 mph38%30.14 "Hg10 mi
11:15 AM59 °FSunny.3 mph39%30.15 "Hg10 mi
10:55 AM58 °FSunny.3 mph40%30.15 "Hg10 mi
10:35 AM57 °FSunny.3 mph44%30.15 "Hg10 mi
10:15 AM54 °FSunny.3 mph49%30.15 "Hg10 mi
9:15 AM44 °FSunny.5 mph63%30.14 "Hg10 mi
8:55 AM42 °FSunny.5 mph68%30.14 "Hg10 mi
8:35 AM41 °FSunny.5 mph70%30.14 "Hg10 mi
8:15 AM41 °FSunny.5 mph70%30.13 "Hg10 mi
7:55 AM44 °FSunny.5 mph64%30.13 "Hg10 mi
7:35 AM44 °FClear.6 mph62%30.12 "Hg10 mi
7:15 AM45 °FClear.5 mph60%30.11 "Hg10 mi
6:55 AM44 °FClear.5 mph63%30.10 "Hg10 mi
6:35 AM46 °FClear.7 mph61%30.10 "Hg10 mi
6:15 AM46 °FClear.5 mph59%30.09 "Hg10 mi
5:55 AM47 °FClear.6 mph59%30.08 "Hg10 mi
5:35 AM47 °FClear.8 mph57%30.09 "Hg10 mi
5:15 AM47 °FClear.9 mph58%30.08 "Hg10 mi
4:55 AM48 °FClear.9 mph59%30.08 "Hg10 mi
4:15 AM47 °FClear.6 mph63%30.08 "Hg10 mi
3:55 AM48 °FClear.9 mph62%30.08 "Hg10 mi
3:35 AM48 °FClear.7 mph60%30.08 "Hg10 mi
3:15 AM48 °FClear.10 mph63%30.08 "Hg10 mi
2:55 AM47 °FClear.7 mph68%30.08 "Hg10 mi
2:35 AM47 °FClear.7 mph71%30.08 "Hg10 mi
2:15 AM48 °FClear.7 mph70%30.08 "Hg10 mi
1:55 AM48 °FClear.6 mph69%30.08 "Hg10 mi
1:35 AM50 °FClear.7 mph64%30.08 "Hg10 mi
1:15 AM52 °FClear.9 mph59%30.08 "Hg10 mi
12:55 AM51 °FClear.8 mph66%30.08 "Hg10 mi
12:35 AM50 °FClear.6 mph69%30.08 "Hg10 mi
12:15 AM49 °FClear.7 mph74%30.08 "Hg10 mi
11:55 PM
Dec 17
49 °FClear.7 mph76%30.08 "Hg10 mi
11:35 PM50 °FClear.8 mph75%30.08 "Hg10 mi
11:15 PM50 °FClear.7 mph75%30.08 "Hg10 mi
10:55 PM51 °FClear.7 mph75%30.08 "Hg10 mi
10:35 PM51 °FClear.7 mph73%30.07 "Hg10 mi
10:15 PM52 °FClear.8 mph70%30.07 "Hg10 mi
9:15 PM56 °FClear.8 mph40%30.06 "Hg10 mi
Weather by CustomWeather, © 2014

See weather overviewHow to use our weather pages